Location: Praha
(50.0830°N, 14.4670°E)
Time: 09:47:20
(UTC+01:00)

ISS - Pass Details

Date: 06 February 2019
Orbit: 403 x 411 km, 51.6° (Epoch: 17 February)

Event Time Altitude Azimuth Distance (km) Brightness Sun altitude
Rises 17:52:13 0° 286° (WNW) 2,335 1.2 -8.1°
Reaches altitude 10° 17:54:18 10° 285° (WNW) 1,474 0.1 -8.4°
Maximum altitude 17:57:36 73° 200° (SSW) 432 -3.6 -8.9°
Drops below altitude 10° 18:00:54 10° 116° (ESE) 1,474 -1.5 -9.5°
Enters shadow 18:01:12 - 115° (ESE) 1,597 -1.3 -9.5°
